Regional Weather Roundup
Issued by NWS

Home | Current Version | Previous Version | Text Only | Print | Product List | Glossary Off
Versions: 1 2 3 4 5 6 7 8 9 10 11 12 13 14 15 16 17 18 19 20 21 22 23 24 25 26 27 28 29 30 31 32 33 34 35 36 37 38 39 40 41 42 43 44 45 46 47 48 49 50

784
ASUS45 KCYS 230710
RWRWY

WYOMING REGIONAL WEATHER ROUNDUP
NATIONAL WEATHER SERVICE CHEYENNE WY
1200 AM MST THU NOV 23 2017

NOTE:  "FAIR" INDICATES FEW OR NO CLOUDS BELOW 12,000 FEET
WITH NO SIGNIFICANT WEATHER AND/OR OBSTRUCTIONS TO VISIBILITY.

WYZ001-230800-
YELLOWSTONE NATIONAL PARK

CITY           SKY/WX    TMP DP  RH WIND       PRES   REMARKS
LK YELLOWSTONE   N/A     36  36 100 CALM      30.39F
W YELLOWSTONE  NOT AVBL

$$
WYZ002>013-054>058-071-098>099-230800-
NORTHERN WYOMING

CITY           SKY/WX    TMP DP  RH WIND       PRES   REMARKS
JACKSON        MOCLDY    35  34  96 E5        30.37S WCI  31
CODY           FAIR      58  37  45 W15G28    30.20F
GREYBULL       FAIR      36  33  89 VRB5      30.20S WCI  32
WORLAND        FAIR      30  29  96 S3        30.20S
SHERIDAN       FAIR      42  35  76 SW3       30.08F
BUFFALO        FAIR      45  31  58 VRB3      30.14F
GILLETTE       FAIR      47  37  68 SW8       30.11F
HULETT         FAIR      50  37  62 SW10      30.11F
NEWCASTLE      FAIR      36  32  87 NW5       30.15F WCI  32

$$
WYZ014>020-022>026-101>103-230800-
CENTRAL WYOMING

CITY           SKY/WX    TMP DP  RH WIND       PRES   REMARKS
BIG PINEY      FAIR      27  26  96 E5        30.42F WCI  22
PINEDALE       FOG       30  30 100 W3        30.43F VSB 3/4
DUBOIS         FAIR      39  32  75 N10       30.33F WCI  32
LANDER         FAIR      44  33  65 W5        30.27S
RIVERTON       FAIR      40  34  79 SW10      30.27R WCI  33
CASPER         FAIR      40  35  83 SW8       30.24F WCI  34
DOUGLAS        FAIR      40  37  89 NW5       30.22S

$$
WYZ021-027>030-104>119-230800-
SOUTHERN WYOMING

CITY           SKY/WX    TMP DP  RH WIND       PRES   REMARKS
EVANSTON       FAIR      41  37  86 SW7       30.44F
KEMMERER       FAIR      37  34  87 N3        30.44S
FORT BRIDGER   FAIR      47  37  66 SW14      30.45F
ROCK SPRINGS   FAIR      45  36  70 W16G23    30.41S
DIXON          FAIR      33  32  95 CALM      30.44S
RAWLINS        FAIR      45  38  76 SW15      30.37R
SARATOGA       FAIR      41  34  75 SE8G16    30.40R
LARAMIE        FAIR      42  35  76 W8        30.34F
CHEYENNE       FAIR      50  37  61 W15       30.27S
TORRINGTON     FAIR      43  39  86 W7        30.19R
PINE BLUFFS    FAIR      50  36  57 MISG      30.22S

$$




USA.gov is the U.S. government's official web portal to all federal, state and local government web resources and services.